TimeCST,TemperatureF,Dew PointF,Humidity,Sea Level PressureIn,VisibilityMPH,Wind Direction,Wind SpeedMPH,Gust SpeedMPH,PrecipitationIn,Events,Conditions,WindDirDegrees,DateUTC
12:54 AM,28.9,21.9,75,30.40,10.0,NNE,6.9,-,N/A,,Clear,20,2012-11-16 06:54:00
1:54 AM,28.0,21.9,78,30.40,10.0,North,10.4,-,N/A,,Clear,10,2012-11-16 07:54:00
2:54 AM,28.9,23.0,78,30.40,10.0,NNE,9.2,-,N/A,,Clear,20,2012-11-16 08:54:00
3:54 AM,28.0,21.9,78,30.40,10.0,NE,6.9,-,N/A,,Clear,40,2012-11-16 09:54:00
4:54 AM,27.0,21.9,81,30.40,10.0,Calm,Calm,-,N/A,,Clear,0,2012-11-16 10:54:00
5:54 AM,26.1,21.0,81,30.41,10.0,NW,4.6,-,N/A,,Clear,310,2012-11-16 11:54:00
6:54 AM,24.1,19.0,81,30.42,10.0,NW,4.6,-,N/A,,Clear,320,2012-11-16 12:54:00
7:54 AM,25.0,19.0,78,30.43,8.0,Calm,Calm,-,N/A,,Clear,0,2012-11-16 13:54:00
8:54 AM,34.0,26.1,73,30.41,10.0,Calm,Calm,-,N/A,,Clear,0,2012-11-16 14:54:00
9:54 AM,41.0,28.0,60,30.40,10.0,South,6.9,-,N/A,,Clear,190,2012-11-16 15:54:00
10:54 AM,50.0,33.1,52,30.38,10.0,South,8.1,-,N/A,,Clear,180,2012-11-16 16:54:00
11:54 AM,55.0,37.0,51,30.35,10.0,South,13.8,-,N/A,,Clear,180,2012-11-16 17:54:00
12:54 PM,57.0,36.0,45,30.31,10.0,South,18.4,25.3,N/A,,Clear,180,2012-11-16 18:54:00
1:54 PM,57.9,36.0,44,30.28,10.0,SSW,18.4,26.5,N/A,,Clear,200,2012-11-16 19:54:00
2:54 PM,59.0,36.0,42,30.26,10.0,South,18.4,25.3,N/A,,Clear,190,2012-11-16 20:54:00
3:54 PM,57.9,34.0,41,30.25,10.0,South,17.3,26.5,N/A,,Clear,170,2012-11-16 21:54:00
4:54 PM,57.0,34.0,42,30.24,10.0,South,15.0,-,N/A,,Clear,170,2012-11-16 22:54:00
5:54 PM,51.1,33.1,50,30.24,10.0,SSE,11.5,-,N/A,,Clear,160,2012-11-16 23:54:00
6:54 PM,46.9,32.0,56,30.25,10.0,SSE,12.7,-,N/A,,Clear,150,2012-11-17 00:54:00
7:54 PM,46.0,33.1,61,30.26,10.0,SSE,11.5,-,N/A,,Clear,160,2012-11-17 01:54:00
8:54 PM,45.0,33.1,63,30.24,10.0,SSE,11.5,-,N/A,,Clear,160,2012-11-17 02:54:00
9:54 PM,46.0,34.0,63,30.22,10.0,SSE,12.7,-,N/A,,Clear,160,2012-11-17 03:54:00
10:54 PM,43.0,34.0,71,30.20,10.0,South,11.5,-,N/A,,Clear,170,2012-11-17 04:54:00
11:54 PM,42.1,34.0,73,30.19,10.0,South,13.8,-,N/A,,Clear,170,2012-11-17 05:54:00